When you browse on this site, cookies collect data to enhance your experience and personalize the content and advertising you see.
Visit our Privacy Policy to learn more. By continuing to use the site, you agree to this use of cookies and data.
  • Em Portugal
  • Lista de países
  • Para 7 dias
  • Temperatura da água
  • Mapa do tempo
  • Widgets de tempo
  • user-avatar
    Iniciar Sessão

    Previsão horária em Faro

    Hoje, 18 Novembro, Segunda-feira

    Tempo Temperatura Precipitação Vento Pressão Humidade
    00:00 +13°C° 0.2 mm 8 m/s 760 mmHg 84%
    01:00 +11°C° 0.2 mm 8 m/s 760 mmHg 82%
    02:00 +9°C° 0.2 mm 8 m/s 760 mmHg 79%
    03:00 +9°C° 0 mm 8 m/s 760 mmHg 80%
    04:00 +9°C° 0 mm 7 m/s 760 mmHg 81%
    05:00 +9°C° 0 mm 7 m/s 761 mmHg 81%
    06:00 +10°C° 0 mm 7 m/s 761 mmHg 78%
    07:00 +11°C° 0 mm 7 m/s 762 mmHg 75%
    08:00 +12°C° 0 mm 7 m/s 762 mmHg 72%
    09:00 +14°C° 0 mm 7 m/s 762 mmHg 65%
    10:00 +15°C° 0 mm 6 m/s 762 mmHg 58%
    11:00 +16°C° 0 mm 6 m/s 762 mmHg 51%
    12:00 +16°C° 0 mm 5 m/s 761 mmHg 49%
    13:00 +17°C° 0 mm 5 m/s 761 mmHg 46%
    14:00 +17°C° 0 mm 5 m/s 761 mmHg 43%
    15:00 +15°C° 0 mm 4 m/s 761 mmHg 50%
    16:00 +14°C° 0 mm 4 m/s 761 mmHg 56%
    17:00 +12°C° 0 mm 4 m/s 761 mmHg 62%
    18:00 +11°C° 0 mm 4 m/s 762 mmHg 64%
    19:00 +11°C° 0 mm 4 m/s 762 mmHg 66%
    20:00 +11°C° 0 mm 4 m/s 763 mmHg 67%
    21:00 +10°C° 0 mm 4 m/s 763 mmHg 70%
    22:00 +10°C° 0 mm 4 m/s 763 mmHg 72%
    23:00 +8°C° 0 mm 4 m/s 762 mmHg 74%

    Amanhã, 19 Novembro, Terça-feira

    Tempo Temperatura Precipitação Vento Pressão Humidade
    00:00 +9°C° 0 mm 3 m/s 762 mmHg 75%
    01:00 +9°C° 0 mm 3 m/s 762 mmHg 76%
    02:00 +9°C° 0 mm 2 m/s 762 mmHg 77%
    03:00 +9°C° 0 mm 2 m/s 762 mmHg 76%
    04:00 +9°C° 0 mm 2 m/s 762 mmHg 76%
    05:00 +9°C° 0 mm 3 m/s 762 mmHg 76%
    06:00 +10°C° 0 mm 2 m/s 762 mmHg 71%
    07:00 +12°C° 0 mm 2 m/s 762 mmHg 67%
    08:00 +13°C° 0 mm 2 m/s 763 mmHg 63%
    09:00 +13°C° 0 mm 2 m/s 762 mmHg 60%
    10:00 +14°C° 0 mm 1 m/s 762 mmHg 58%
    11:00 +14°C° 0 mm 1 m/s 762 mmHg 55%
    12:00 +14°C° 0 mm 1 m/s 761 mmHg 55%
    13:00 +15°C° 0 mm 1 m/s 761 mmHg 55%
    14:00 +15°C° 0 mm 1 m/s 760 mmHg 55%
    15:00 +14°C° 0 mm 1 m/s 760 mmHg 60%
    16:00 +13°C° 0 mm 1 m/s 760 mmHg 65%
    17:00 +12°C° 0 mm 1 m/s 760 mmHg 70%
    18:00 +11°C° 0 mm 1 m/s 760 mmHg 72%
    19:00 +11°C° 0 mm 1 m/s 760 mmHg 75%
    20:00 +10°C° 0 mm 2 m/s 760 mmHg 78%
    21:00 +10°C° 0 mm 2 m/s 759 mmHg 80%
    22:00 +11°C° 0 mm 3 m/s 759 mmHg 82%
    23:00 +11°C° 0 mm 3 m/s 759 mmHg 84%

    Depois de amanhã, 20 Novembro, Quarta-feira

    Tempo Temperatura Precipitação Vento Pressão Humidade
    00:00 +12°C° 0.1 mm 4 m/s 758 mmHg 85%
    01:00 +13°C° 0.1 mm 5 m/s 758 mmHg 87%
    02:00 +13°C° 0.1 mm 5 m/s 758 mmHg 88%
    03:00 +13°C° 3.7 mm 6 m/s 757 mmHg 91%
    04:00 +13°C° 3.7 mm 6 m/s 757 mmHg 94%
    05:00 +13°C° 3.7 mm 6 m/s 756 mmHg 97%
    06:00 +13°C° 2.8 mm 6 m/s 757 mmHg 95%
    07:00 +14°C° 2.8 mm 6 m/s 757 mmHg 93%
    08:00 +14°C° 2.8 mm 5 m/s 758 mmHg 90%
    09:00 +14°C° 0.1 mm 5 m/s 758 mmHg 84%
    10:00 +15°C° 0.1 mm 5 m/s 758 mmHg 78%
    11:00 +15°C° 0.1 mm 5 m/s 758 mmHg 72%
    12:00 +16°C° 0 mm 5 m/s 757 mmHg 68%
    13:00 +16°C° 0 mm 5 m/s 757 mmHg 64%
    14:00 +16°C° 0 mm 5 m/s 757 mmHg 60%
    15:00 +15°C° 0 mm 4 m/s 757 mmHg 67%
    16:00 +14°C° 0 mm 4 m/s 757 mmHg 73%
    17:00 +13°C° 0 mm 4 m/s 757 mmHg 79%
    18:00 +13°C° 0.1 mm 4 m/s 758 mmHg 81%
    19:00 +13°C° 0.1 mm 4 m/s 758 mmHg 82%
    20:00 +13°C° 0.1 mm 4 m/s 758 mmHg 84%
    21:00 +13°C° 0.3 mm 4 m/s 758 mmHg 87%
    22:00 +12°C° 0.3 mm 4 m/s 758 mmHg 90%
    23:00 +12°C° 0.3 mm 4 m/s 758 mmHg 93%

    21 Novembro, Quinta-feira

    Tempo Temperatura Precipitação Vento Pressão Humidade
    00:00 +12°C° 0.3 mm 4 m/s 758 mmHg 93%
    01:00 +12°C° 0.3 mm 4 m/s 758 mmHg 93%
    02:00 +12°C° 0.3 mm 4 m/s 757 mmHg 93%
    03:00 +12°C° 0.3 mm 4 m/s 757 mmHg 92%
    04:00 +12°C° 0.3 mm 3 m/s 757 mmHg 92%
    05:00 +12°C° 0.3 mm 3 m/s 757 mmHg 92%
    06:00 +14°C° 0.2 mm 2 m/s 757 mmHg 89%
    07:00 +15°C° 0.2 mm 2 m/s 758 mmHg 86%
    08:00 +15°C° 0.2 mm 1 m/s 758 mmHg 83%
    09:00 +16°C° 0.1 mm 2 m/s 758 mmHg 78%
    10:00 +17°C° 0.1 mm 2 m/s 758 mmHg 73%
    11:00 +18°C° 0.1 mm 3 m/s 758 mmHg 68%
    12:00 +18°C° 0.1 mm 3 m/s 757 mmHg 71%
    13:00 +17°C° 0.1 mm 3 m/s 757 mmHg 75%
    14:00 +17°C° 0.1 mm 4 m/s 757 mmHg 78%
    15:00 +16°C° 0.2 mm 3 m/s 757 mmHg 82%
    16:00 +16°C° 0.2 mm 3 m/s 757 mmHg 86%
    17:00 +14°C° 0.2 mm 3 m/s 757 mmHg 90%
    18:00 +14°C° 0.4 mm 4 m/s 757 mmHg 92%
    19:00 +15°C° 0.4 mm 5 m/s 757 mmHg 94%
    20:00 +15°C° 0.4 mm 7 m/s 757 mmHg 96%
    21:00 +15°C° 0.3 mm 7 m/s 757 mmHg 94%
    22:00 +15°C° 0.3 mm 7 m/s 757 mmHg 93%
    23:00 +16°C° 0.3 mm 8 m/s 757 mmHg 91%

    22 Novembro, Sexta-feira

    Tempo Temperatura Precipitação Vento Pressão Humidade
    00:00 +16°C° 0.2 mm 8 m/s 757 mmHg 91%
    01:00 +16°C° 0.2 mm 8 m/s 756 mmHg 91%
    02:00 +16°C° 0.2 mm 8 m/s 756 mmHg 92%
    03:00 +16°C° 0.8 mm 8 m/s 756 mmHg 92%
    04:00 +16°C° 0.8 mm 8 m/s 755 mmHg 93%
    05:00 +16°C° 0.8 mm 8 m/s 755 mmHg 94%
    06:00 +16°C° 0.5 mm 8 m/s 755 mmHg 93%
    07:00 +17°C° 0.5 mm 8 m/s 755 mmHg 91%
    08:00 +17°C° 0.5 mm 8 m/s 756 mmHg 90%
    09:00 +18°C° 0.3 mm 8 m/s 756 mmHg 88%
    10:00 +18°C° 0.3 mm 8 m/s 756 mmHg 87%
    11:00 +20°C° 0.3 mm 8 m/s 756 mmHg 85%
    12:00 +20°C° 0.1 mm 8 m/s 755 mmHg 80%
    13:00 +20°C° 0.1 mm 7 m/s 755 mmHg 76%
    14:00 +21°C° 0.1 mm 7 m/s 755 mmHg 71%
    15:00 +19°C° 0 mm 6 m/s 755 mmHg 79%
    16:00 +17°C° 0 mm 6 m/s 756 mmHg 86%
    17:00 +16°C° 0 mm 5 m/s 756 mmHg 93%
    18:00 +16°C° 0 mm 5 m/s 757 mmHg 93%
    19:00 +16°C° 0 mm 5 m/s 757 mmHg 92%
    20:00 +16°C° 0 mm 5 m/s 757 mmHg 92%
    21:00 +16°C° 0.1 mm 6 m/s 757 mmHg 93%
    22:00 +16°C° 0.1 mm 6 m/s 757 mmHg 94%
    23:00 +16°C° 0.1 mm 7 m/s 758 mmHg 95%

    23 Novembro, Sábado

    Tempo Temperatura Precipitação Vento Pressão Humidade
    00:00 +17°C° 0.1 mm 7 m/s 757 mmHg 94%
    01:00 +17°C° 0.1 mm 7 m/s 757 mmHg 93%
    02:00 +17°C° 0.1 mm 7 m/s 757 mmHg 92%
    03:00 +17°C° 0 mm 6 m/s 758 mmHg 91%
    04:00 +16°C° 0 mm 5 m/s 758 mmHg 90%
    05:00 +17°C° 0 mm 4 m/s 758 mmHg 90%
    06:00 +17°C° 0 mm 4 m/s 759 mmHg 88%
    07:00 +17°C° 0 mm 4 m/s 760 mmHg 85%
    08:00 +17°C° 0 mm 4 m/s 760 mmHg 83%
    09:00 +18°C° 0 mm 3 m/s 761 mmHg 78%
    10:00 +19°C° 0 mm 3 m/s 761 mmHg 73%
    11:00 +20°C° 0 mm 3 m/s 761 mmHg 68%
    12:00 +20°C° 0 mm 3 m/s 761 mmHg 67%
    13:00 +20°C° 0 mm 3 m/s 761 mmHg 65%
    14:00 +20°C° 0 mm 3 m/s 760 mmHg 64%
    15:00 +19°C° 0 mm 3 m/s 761 mmHg 70%
    16:00 +17°C° 0 mm 3 m/s 761 mmHg 76%
    17:00 +16°C° 0 mm 3 m/s 762 mmHg 81%
    18:00 +16°C° 0 mm 3 m/s 762 mmHg 84%
    19:00 +14°C° 0 mm 3 m/s 763 mmHg 86%
    20:00 +13°C° 0 mm 3 m/s 763 mmHg 88%
    21:00 +14°C° 0 mm 2 m/s 763 mmHg 88%
    22:00 +14°C° 0 mm 2 m/s 763 mmHg 88%
    23:00 +14°C° 0 mm 2 m/s 764 mmHg 88%
    Mostrar mais